Location: Dehesa de la Cepeda
(40.6574°N, 4.3013°W)
Time: 19:48:39
(UTC+00:00)

Cosmos 1953 Rocket - Pass Details

Date: 05 July 2020
Orbit: 605 x 634 km, 82.5° (Epoch: 05 August)

Event Time Altitude Azimuth Distance (km) Brightness Sun altitude
Exits shadow 21:33:10 21° 176° (S) 1,370 4.9 -15.5°
Maximum altitude 21:35:59 72° 96° (E) 640 3.4 -15.9°
Drops below altitude 10° 21:40:18 10° 12° (NNE) 1,962 6.7 -16.4°
Sets 21:42:32 0° 10° (N) 2,872 7.6 -16.6°
